Regional Weather Roundup
Issued by NWS

Home | Current Version | Previous Version | Graphics & Text | Print | Product List | Glossary On
Versions: 1 2 3 4 5 6 7 8 9 10 11 12 13 14 15 16 17 18 19 20 21 22 23 24 25 26 27 28 29 30 31 32 33 34 35 36 37 38 39 40 41 42 43 44 45 46 47 48 49 50
000
ASUS44 KMEG 241600
RWRTN
TENNESSEE HOURLY STATE WEATHER ROUNDUP
NATIONAL WEATHER SERVICE MEMPHIS TN
1000 AM CST WED DEC 24 2014

TNZ002-004-019-021-049-052-054-088>092-241700-
WEST TENNESSEE

CITY           SKY/WX    TMP DP  RH WIND       PRES   REMARKS
MEMPHIS INTL   CLOUDY    42  38  85 W12       29.80R
NWS MEMPHIS      N/A     43 N/A N/A MISG        N/A
JACKSON        CLOUDY    45  41  86 NW10      29.75R
DYERSBURG      CLOUDY    43  30  61 CALM      29.77S
UNION CITY     CLOUDY    39  37  93 NW7       29.73R WCI  34
PARIS          CLOUDY    39  37  93 W10       29.71R WCI  32
LEXINGTON      CLOUDY    43  43 100 NW5       29.71R
SAVANNAH       CLOUDY    45  45 100 NW6       29.74R
$$

TNZ008-025-027-028-033-062-065-066-241700-
NORTH MIDDLE TENNESSEE

CITY           SKY/WX    TMP DP  RH WIND       PRES   REMARKS
NASHVILLE      LGT RAIN  48  47  96 W15G22    29.60R FOG
CLARKSVILLE    LGT RAIN  45  43  93 NW13      29.63R FOG
SMYRNA         LGT RAIN  55  54  94 W16       29.60R FOG
COOKEVILLE     MOSUNNY   59  55  88 S8        29.55F
CROSSVILLE     CLOUDY    56  52  86 S9G18     29.60F
$$

TNZ061-075-076-078-094-096-097-241700-
SOUTH MIDDLE TENNESSEE

CITY           SKY/WX    TMP DP  RH WIND       PRES   REMARKS
FAYETTEVILLE   CLOUDY    52  52 100 MISG      29.62R
TULLAHOMA      CLOUDY    55  54  94 SW9       29.60R
WINCHESTER     MOSUNNY   57  55  94 S12       29.60S
SHELBYVILLE    CLOUDY    57  55  94 SW10      29.59S
$$

TNZ017-018-042-046-047-241700-
NORTHEAST TENNESSEE

CITY           SKY/WX    TMP DP  RH WIND       PRES   REMARKS
TRI CITIES     LGT RAIN  56  55  97 E3        29.70F
ELIZABETHTON   LGT RAIN  55  55 100 CALM      29.72F
$$

TNZ012-013-036-069-073-074-241700-
CENTRAL EAST TENNESSEE

CITY           SKY/WX    TMP DP  RH WIND       PRES   REMARKS
KNOXVILLE      CLOUDY    55  54  96 W8        29.61R
OAK RIDGE      CLOUDY    56  54  93 S3        29.63R
GATLINBURG     SUNNY     57  54  88 VRB3      29.58F
$$

TNZ083-085-099-241700-
SOUTHEAST TENNESSEE

CITY           SKY/WX    TMP DP  RH WIND       PRES   REMARKS
CHATTANOOGA    CLOUDY    56  54  93 S10       29.65S
$$

SKY/WX REPORTED AS FAIR MEANS FEW OR NO CLOUDS BELOW
12 THOUSAND FEET.



USA.gov is the U.S. government's official web portal to all federal, state and local government web resources and services.